Flag for Switzerland Weather past 2 weeks in Bern, Bern, Switzerland

Now
61 °F

Low clouds.


Feels Like: 61 °F
Forecast: 51 / 79 °F
Wind: 1 mph from North

Location: Bern / Belp

Current Time: Jul 31, 2014 at 4:07:58 AM

Latest Report: Jul 31, 2014 at 3:20 AM


Visibility: 6 mi

Pressure: 30.01 "Hg

Humidity: 100%

Dew point: 61 °F

Location of BernLocation

Historic Weather in Bern — Graph

°F

Bern temperature yesterday

Maximum temperature yesterday: 70 °F (at 4:50 PM)
Minimum temperature yesterday: 57 °F (at 4:20 AM)
Average temperature yesterday: 61 °F

Past Weeks' High & Low Weather Summary

 TemperatureHumidityPressure
High88 °F (Jul 18, 2:50 PM)100% (Jul 16, 4:20 AM)30.21 "Hg (Jul 16, 4:20 AM)
Low52 °F (Jul 16, 5:20 AM)29% (Jul 17, 6:20 PM)29.83 "Hg (Jul 28, 2:50 PM)
Average66 °F81%29.98 "Hg
* Reported Jul 16 2:20 AM — Jul 31 2:50 AM, Bern, Weather by CustomWeather, © 2014

Note: Actual official high and low records may vary slightly from our data, if they occured in-between our weather recording intervals... More about our weather records

Advertising

Bern weather history for previous 24 hours

 ConditionsComfort  
Time TempWeatherWind HumidityBarometerVisibility
2:50 AM
Jul 31
63 °FPassing clouds.6 mph94%30.01 "Hg4 mi
2:20 AM63 °FDrizzle. Fog.1 mph100%30.01 "Hg2 mi
1:50 AM63 °FRain. Fog.No wind100%30.01 "Hg2 mi
1:20 AM63 °FPassing clouds.1 mph100%30.01 "Hg4 mi
12:50 AM63 °FPassing clouds.1 mph100%30.01 "Hg3 mi
12:20 AM63 °FFog.2 mph100%30.01 "Hg3 mi
11:50 PM
Jul 30
63 °FPartly cloudy.1 mph100%30.01 "Hg4 mi
11:20 PM63 °FLight rain. Fog.1 mph100%30.01 "Hg2 mi
10:50 PM63 °FDrizzle. Fog.No wind100%30.01 "Hg2 mi
10:20 PM63 °FPartly cloudy.3 mph94%29.98 "HgN/A
9:50 PM63 °FBroken clouds.3 mph100%29.98 "Hg5 mi
9:20 PM63 °FFog.2 mph100%29.98 "Hg5 mi
8:50 PM63 °FBroken clouds.3 mph100%29.95 "Hg5 mi
8:20 PM63 °FBroken clouds.2 mph100%29.95 "Hg5 mi
7:50 PM63 °FBroken clouds.3 mph100%29.95 "Hg5 mi
7:20 PM64 °FScattered showers. Broken clouds.2 mph94%29.95 "HgN/A
6:50 PM64 °FRain showers. Broken clouds.No wind94%29.95 "Hg3 mi
6:20 PM64 °FSprinkles. Broken clouds.5 mph94%29.95 "Hg4 mi
5:50 PM64 °FSprinkles. Broken clouds.2 mph94%29.92 "HgN/A
5:20 PM68 °FBroken clouds.5 mph78%29.92 "HgN/A
4:50 PM70 °FBroken clouds.5 mph83%29.92 "HgN/A
4:20 PM68 °FBroken clouds.3 mph83%29.92 "HgN/A
3:50 PM68 °FPartly sunny.6 mph83%29.92 "HgN/A
3:20 PM64 °FPartly sunny.2 mph88%29.92 "HgN/A
2:50 PM64 °FBroken clouds.2 mph88%29.92 "HgN/A
2:20 PM64 °FPartly sunny.2 mph88%29.92 "HgN/A
1:50 PM63 °FPartly sunny.2 mph88%29.92 "HgN/A
1:20 PM63 °FCloudy.2 mph88%29.92 "HgN/A
12:50 PM63 °FCloudy.2 mph88%29.92 "HgN/A
12:20 PM61 °FDrizzle. Broken clouds.1 mph94%29.92 "Hg3 mi
11:50 AM61 °FBroken clouds.3 mph94%29.89 "Hg4 mi
11:20 AM61 °FDrizzle. Broken clouds.2 mph94%29.89 "Hg2 mi
10:50 AM61 °FDrizzle. Mostly cloudy.2 mph94%29.89 "Hg2 mi
10:20 AM59 °FLight rain. Mostly cloudy.3 mph100%29.89 "Hg2 mi
9:50 AM59 °FRain. Mostly cloudy.2 mph100%29.89 "Hg2 mi
9:20 AM59 °FRain. More clouds than sun.5 mph100%29.89 "Hg2 mi
8:50 AM59 °FLight rain. More clouds than sun.2 mph100%29.86 "Hg3 mi
8:20 AM59 °FRain. Low clouds.1 mph94%29.86 "Hg3 mi
7:50 AM59 °FLight rain. Low clouds.1 mph94%29.86 "Hg5 mi
7:20 AM59 °FDrizzle. Low clouds.2 mph94%29.86 "HgN/A
6:50 AM57 °FOvercast.1 mph100%29.86 "HgN/A
6:20 AM57 °FOvercast.2 mph100%29.86 "HgN/A
5:50 AM57 °FPartly cloudy.3 mph100%29.86 "HgN/A
5:20 AM57 °FLow clouds.2 mph100%29.86 "HgN/A
4:50 AM57 °FPartly cloudy.2 mph94%29.86 "HgN/A
4:20 AM57 °FPassing clouds.2 mph94%29.86 "HgN/A
Weather by CustomWeather, © 2014

See weather overviewHow to use our weather pages